Find Starlink 31295

NORAD ID: 59095 Int'l Des: 2024-041 Owner: SPXS Country: US Constellation: starlink operational
LEOCIRCULAR

实时位置

正在加载3D地球...

关于 Starlink 31295

正在加载描述...

即将过境

Passes for default location (London). Set your location on the main map for personalized predictions.

高度历史

Loading altitude history...

两行轨道根数

1 59095U 24041X 26119.44150984 .00003409 00000-0 13337-3 0 9999
2 59095 43.0067 24.0521 0000987 278.2718 81.8022 15.27576570122037
Epoch: Apr 29, 2026 • Age: 12 hours

当前状态

高度 482.5 km
速度 7.63 km/s
星下点 6.29°N, 1.78°E
发射日期 Feb 29, 2024
运行时间 2.1 years
类型 internet

技术详情

分类 Payload
质量 730.00 kg
干质量 700.00 kg
总质量 730.00 kg
长度 0.30 m
直径 4.10 m
跨度 29.00 m
形状 Box + pan
制造商 SPXS
平台类型 Starlink V2M
阶段状态 In Orbit
所有者/国家 SPXS/US

Most Searched